EW1663 Weather Reports


Display with metric or nautical units.
time (UTC)temp
F
wind
direction
speed
MPH
gust
MPH
rain 1hr
in
rain 24hr
in
rain mn
in
humidity
%
barometer
mb
20190116160206 37 243 5.0 9.0 0.00 0.00 0.00 89 1009.2
20190116155146 37 257 5.0 9.0 0.00 0.00 0.00 89 1009.4
20190116154119 37 260 4.0 9.0 0.00 0.00 0.00 88 1009.4
20190116153058 38 220 3.0 9.0 0.00 0.00 0.00 87 1009.4
20190116152119 38 235 3.0 9.0 0.00 0.00 0.00 87 1009.5
20190116151058 38 227 3.0 9.0 0.00 0.00 0.00 87 1009.6
20190116150058 38 253 3.0 8.0 0.00 0.00 0.00 86 1009.7
20190116145036 38 223 3.0 9.0 0.00 0.00 0.00 86 1009.8
20190116144045 39 245 4.0 10.0 0.00 0.00 0.00 86 1009.8
20190116143014 39 243 5.0 10.0 0.00 0.00 0.00 86 1010.0
20190116141942 39 247 5.0 9.0 0.00 0.00 0.00 85 1010.0
20190116140950 40 243 2.0 8.0 0.00 0.00 0.00 84 1010.2
20190116135926 40 245 5.0 12.0 0.00 0.00 0.00 85 1010.3
20190116134905 39 243 5.0 12.0 0.00 0.00 0.00 85 1010.5
20190116133930 39 284 2.0 10.0 0.00 0.00 0.00 86 1010.7
20190116132949 39 247 5.0 10.0 0.00 0.00 0.00 86 1010.9
20190116131928 39 233 7.0 10.0 0.00 0.00 0.00 85 1011.1
20190116130931 39 242 4.0 9.0 0.00 0.00 0.00 85 1011.2
20190116125914 39 234 4.0 9.0 0.00 0.00 0.00 85 1011.3
20190116124847 39 259 5.0 10.0 0.00 0.00 0.00 85 1011.5
20190116123848 39 226 5.0 11.0 0.00 0.00 0.00 86 1011.7
20190116122853 38 230 5.0 11.0 0.00 0.00 0.00 87 1011.9
20190116121858 38 251 5.0 11.0 0.00 0.00 0.00 88 1012.1
20190116120850 38 239 4.0 10.0 0.00 0.00 0.00 88 1012.2
20190116115852 38 237 3.0 10.0 0.00 0.00 0.00 88 1012.4
20190116114914 38 245 4.0 10.0 0.00 0.00 0.00 89 1012.6
20190116113859 38 260 5.0 9.0 0.00 0.00 0.00 88 1012.7
20190116112908 37 220 3.0 8.0 0.00 0.00 0.00 90 1013.0
20190116111838 37 245 3.0 11.0 0.00 0.00 0.00 90 1013.3
20190116110839 37 269 5.0 11.0 0.00 0.00 0.00 90 1013.5
20190116105830 37 233 4.0 8.0 0.00 0.00 0.00 90 1013.7
20190116104800 37 242 3.0 9.0 0.00 0.00 0.00 91 1013.8
20190116103742 36 254 4.0 9.0 0.00 0.00 0.00 92 1014.0
20190116102738 36 239 1.0 7.0 0.00 0.00 0.00 92 1014.2
20190116101737 36 247 1.0 6.0 0.00 0.00 0.00 93 1014.3
20190116100738 36 239 2.0 8.0 0.00 0.00 0.00 92 1014.4
20190116095715 36 236 2.0 8.0 0.00 0.00 0.00 92 1014.6
20190116094727 35 256 1.0 7.0 0.00 0.00 0.00 93 1014.7
20190116093732 35 249 2.0 7.0 0.00 0.00 0.00 93 1014.6
20190116092711 35 206 3.0 7.0 0.00 0.00 0.00 93 1014.8
20190116091735 35 243 3.0 7.0 0.00 0.00 0.00 93 1015.0
20190116090759 35 265 2.0 6.0 0.00 0.00 0.00 93 1014.9
20190116085737 35 235 2.0 5.0 0.00 0.00 0.00 93 1015.0
20190116084715 35 244 2.0 6.0 0.00 0.00 0.00 93 1015.0
20190116083712 35 238 3.0 9.0 0.00 0.00 0.00 93 1015.1
20190116082720 35 266 2.0 9.0 0.00 0.00 0.00 93 1015.0
20190116081725 35 254 2.0 7.0 0.00 0.00 0.00 94 1015.3
20190116080715 35 253 1.0 4.0 0.00 0.00 0.00 93 1015.1
20190116075736 35 252 1.0 5.0 0.00 0.00 0.00 93 1015.4
20190116074731 35 248 2.0 6.0 0.00 0.00 0.00 93 1015.3
20190116073719 35 220 1.0 6.0 0.00 0.00 0.00 93 1015.4
20190116072700 35 239 2.0 6.0 0.00 0.00 0.00 93 1015.6
20190116071716 35 241 3.0 6.0 0.00 0.00 0.00 93 1015.6
20190116070709 35 244 2.0 7.0 0.00 0.00 0.00 93 1015.6
20190116065650 35 251 3.0 8.0 0.00 0.00 0.00 93 1015.8
20190116064638 35 228 4.0 8.0 0.00 0.00 0.00 93 1015.8
20190116063607 35 225 5.0 8.0 0.00 0.00 0.00 93 1016.0
20190116062616 35 234 4.0 10.0 0.00 0.00 0.00 93 1016.0
20190116061629 35 245 4.0 10.0 0.00 0.00 0.00 93 1016.0
20190116060640 35 241 4.0 8.0 0.00 0.00 0.00 93 1016.0
20190116055636 35 239 4.0 8.0 0.00 0.00 0.00 93 1016.1
20190116054649 35 214 3.0 8.0 0.00 0.00 0.00 93 1016.1
20190116053702 35 241 3.0 8.0 0.00 0.00 0.00 93 1016.2
20190116052721 35 235 3.0 10.0 0.00 0.00 0.00 93 1016.4
20190116051730 35 244 4.0 10.0 0.00 0.00 0.00 93 1016.5
20190116050715 35 244 2.0 8.0 0.00 0.00 0.00 93 1016.7
20190116045721 35 254 3.0 8.0 0.00 0.00 0.00 93 1016.8
20190116044745 35 239 1.0 8.0 0.00 0.00 0.00 93 1016.9
20190116043711 35 250 1.0 8.0 0.00 0.00 0.00 93 1017.1
20190116042732 35 233 2.0 6.0 0.00 0.00 0.00 93 1017.1
20190116041715 36 238 1.0 7.0 0.00 0.00 0.00 93 1017.2
20190116040644 36 249 2.0 7.0 0.00 0.00 0.00 94 1017.3
20190116035648 36 223 1.0 5.0 0.00 0.00 0.00 94 1017.4
20190116034648 36 236 1.0 5.0 0.00 0.00 0.00 94 1017.5
20190116033646 36 241 1.0 5.0 0.00 0.00 0.00 94 1017.6
20190116032634 36 238 1.0 5.0 0.00 0.00 0.00 94 1017.7
20190116031655 36 251 1.0 5.0 0.00 0.00 0.00 94 1017.9
20190116030704 36 230 0.0 3.0 0.00 0.00 0.00 94 1018.0
20190116025645 36 245 1.0 6.0 0.00 0.00 0.00 94 1018.1
20190116024631 36 245 2.0 6.0 0.00 0.00 0.00 94 1018.2
20190116023612 36 243 2.0 6.0 0.00 0.00 0.00 94 1018.2
20190116022550 36 241 1.0 6.0 0.00 0.00 0.00 94 1018.4
20190116021543 36 250 2.0 6.0 0.00 0.00 0.00 94 1018.6
20190116020522 36 242 1.0 6.0 0.00 0.00 0.00 94 1018.5
20190116015507 36 250 0.0 4.0 0.00 0.00 0.00 94 1018.7
20190116014528 36 258 1.0 4.0 0.00 0.00 0.00 94 1018.7
20190116013524 36 234 1.0 6.0 0.00 0.00 0.00 94 1018.6
20190116012451 36 262 1.0 6.0 0.00 0.00 0.00 94 1018.7
20190116011503 36 252 1.0 6.0 0.00 0.00 0.00 94 1018.8
20190116010504 36 237 1.0 5.0 0.00 0.00 0.00 94 1019.0
20190116005459 36 244 1.0 6.0 0.00 0.00 0.00 94 1019.1
20190116004500 37 239 0.0 6.0 0.00 0.00 0.00 95 1019.1
20190116003451 37 249 0.0 1.0 0.00 0.00 0.00 95 1019.1
20190116002433 37 242 0.0 5.0 0.00 0.00 0.00 95 1019.2
20190116001446 37 244 0.0 5.0 0.00 0.00 0.00 95 1019.3
20190116000433 37 247 1.0 6.0 0.00 0.00 0.00 95 1019.4
20190115235439 37 251 1.0 8.0 0.00 0.00 0.00 95 1019.5
20190115234410 37 265 1.0 8.0 0.00 0.00 0.00 95 1019.5
20190115233432 37 253 1.0 6.0 0.00 0.00 0.00 95 1019.6
20190115232434 37 251 1.0 5.0 0.00 0.00 0.00 96 1019.6
20190115231428 37 244 0.0 4.0 0.00 0.00 0.00 96 1019.8
20190115230425 37 249 1.0 5.0 0.00 0.00 0.00 96 1020.0
20190115225415 37 246 0.0 5.0 0.00 0.00 0.00 96 1020.0
20190115224355 37 232 0.0 4.0 0.00 0.00 0.00 96 1020.1
20190115223359 37 249 1.0 9.0 0.00 0.00 0.00 96 1020.1
20190115222325 37 248 1.0 9.0 0.00 0.00 0.00 96 1020.2
20190115221251 37 246 1.0 6.0 0.00 0.00 0.00 97 1020.4
20190115220256 37 247 1.0 5.0 0.00 0.00 0.00 97 1020.4
20190115215231 37 248 1.0 7.0 0.00 0.00 0.00 97 1020.4
20190115214157 37 241 1.0 7.0 0.00 0.00 0.00 97 1020.5
20190115213127 37 253 0.0 7.0 0.00 0.00 0.00 97 1020.5
20190115212054 37 246 1.0 5.0 0.00 0.00 0.00 97 1020.6
20190115211043 37 242 0.0 8.0 0.00 0.00 0.00 97 1020.6
20190115210022 37 249 2.0 8.0 0.00 0.00 0.00 97 1020.7
20190115205043 37 279 1.0 7.0 0.00 0.00 0.00 97 1020.7
20190115204034 37 250 2.0 7.0 0.00 0.00 0.00 97 1020.8
20190115203051 37 270 1.0 7.0 0.00 0.00 0.00 97 1020.8
20190115202028 37 243 2.0 9.0 0.00 0.00 0.00 98 1020.8
20190115201052 37 259 2.0 9.0 0.00 0.00 0.00 98 1020.8
20190115200051 37 228 2.0 10.0 0.00 0.00 0.00 98 1020.8
20190115195115 38 230 2.0 10.0 0.00 0.00 0.00 98 1020.9
20190115194134 38 250 1.0 6.0 0.00 0.00 0.00 98 1021.0
20190115193106 38 272 2.0 6.0 0.00 0.00 0.00 98 1021.0
20190115192112 38 249 1.0 5.0 0.00 0.00 0.00 98 1021.1
20190115191129 38 250 1.0 7.0 0.00 0.00 0.00 98 1021.1
20190115190121 38 241 2.0 7.0 0.00 0.00 0.00 98 1021.2
20190115185134 38 252 0.0 6.0 0.00 0.00 0.00 98 1021.3
20190115184155 37 247 1.0 7.0 0.00 0.00 0.00 97 1021.3
20190115183127 37 253 2.0 7.0 0.00 0.00 0.00 97 1021.3
20190115182113 37 243 1.0 5.0 0.00 0.00 0.00 97 1021.3
20190115181119 37 251 1.0 4.0 0.00 0.00 0.00 97 1021.3
20190115180110 37 275 0.0 7.0 0.00 0.00 0.00 97 1021.4
20190115175121 37 246 1.0 7.0 0.00 0.00 0.00 97 1021.6
20190115174059 37 257 1.0 5.0 0.00 0.00 0.00 97 1021.5
20190115173118 37 244 0.0 5.0 0.00 0.00 0.00 97 1021.5
20190115172123 37 250 2.0 6.0 0.00 0.00 0.00 97 1021.6
20190115171143 37 244 1.0 6.0 0.00 0.00 0.00 97 1021.6
20190115170202 37 246 1.0 6.0 0.00 0.00 0.00 97 1021.7
20190115165203 37 236 1.0 4.0 0.00 0.00 0.00 96 1021.7
20190115164203 37 241 1.0 5.0 0.00 0.00 0.00 96 1021.7
20190115163221 37 238 1.0 5.0 0.00 0.00 0.00 96 1021.8
20190115162203 37 250 0.0 5.0 0.00 0.00 0.00 96 1021.8
20190115161140 38 252 1.0 5.0 0.00 0.00 0.00 96 1021.8